"Pseudo-MPEC" for A10g5dq

Created 2019 Sep 13 2:07:03 UT using Find_Orb

Click here for an explanation of pseudo-MPECs

 
 Astrometry: 
     A10g5dq  C2019 09 11.60374703 19 20.23 +24 13 49.4    ~9BJ7 17.37oVNEOCPT08
     A10g5dq  C2019 09 11.60780203 19 13.14 +24 15 03.6    ~9BJ7 17.98oVNEOCPT08
     A10g5dq  C2019 09 11.61422403 19 01.93 +24 17 01.1    ~9BJ7 17.16oVNEOCPT08
     A10g5dq  C2019 09 11.62376003 18 45.35 +24 19 54.5    ~9BJ7 18.93oVNEOCPT08
     A10g5dq KC2019 09 11h`1%]x$84j[LrRAor,nmY=s\0m52IWrZ6Sq4W/IGjOswkol=!;e5L34
     A10g5dq KC2019 09 11.96033303 12 22.50 +25 41 54.8    ~9BNq 17.3 GVNEOCPJ95
     A10g5dq KC2019 09 11.96201503 12 20.42 +25 42 20.8    ~9BNq 17.6 GVNEOCPJ95
     A10g5dq KC2019 09 11.96597303 12 15.69 +25 43 22.7    ~9BNq 17.6 GVNEOCPJ95
     A10g5dq KC2019 09 11.97337303 12 06.81 +25 45 16.3    ~9BNq 17.4 GVNEOCPJ95
     A10g5dq KC2019 09 112^qB+`T.='hSZ`AkIj9:@f7e[]]7xL1:C-]b.CQ-W7NH`s;Tm(E2L34
     A10g5dq KC2019 09 11c)I'KLlfI@,N`_%GpPd1#epb1\Kn,LOWRBwVv=b8F#w%$mvT1-WkL34
     A10g5dq KC2019 09 12L'S7d%+p+['7W%mSv0Ev3B7iRF9Wle_E#IJbs/CGTY:a0$,,k(b]L34
     A10g5dq KC2019 09 12q:)rS`dsE/vH4^uC\PDj/_R?c^Ugh88)u06[t/[^+]LD3oZcnJrSA44
     A10g5dq KC2019 09 12VlpoL%6:qNwl_4(3C=K)Tw'gAstrometryGaP;e#Hvokux[5o/3HA44
     A10g5dq KC2019 09 12!x\Do-'I_.7,IgGijIe9g04?k$ik_Il]_jRFr!+Zl7*Z8sJa8)H,A44
     A10g5dq KC2019 09 12H90k9!PG3!8?Hdu-DgE(G7ULSmD\;P^T;PHpZH@VgB@O*NG+@1sJA44
     A10g5dq KC2019 09 12//e`GtUQvK2:iZZy!Vs,849-TosM?(6_B^Yw5U#GIl[*l]:?!F1#A44
     A10g5dq KC2019 09 125Jdit]q9@-xE1:[@q\jcN/!h)Vi:Y$ewG9[RU+qKpe`7\w[;//pQA44
     A10g5dq  C2019 09 128Lt-_RL\eqr=LRx$s=d;ET0.=_V,4=kfi(fTy9Kk($I!uh?u]dOnL01
     A10g5dq  C2019 09 12Lmt1#'ytLfcT,=TEB4kJl:%g\Dc@bl449bpiyjpe-JrJXqGlbq^WL01
     A10g5dq  C2019 09 12QL9ui3^5Gr)0LSSLDI7QtcV,5WyQN].%cU,5mB]eKGl$$/.xM*buL01
     A10g5dq  C2019 09 12]9#u]^X8km+g*JlQJ,Z'0D5bqSF3(^+Y\h=:Zb.e)l6ux,F*AMneL01
     A10g5dq  C2019 09 1206I0IQn)6Mf%E_a4%k[o@Y!f=vm1a/uQ2+cT^[JYPrB?w3l-3HtPL01
     A10g5dq  C2019 09 12DA;`+67=ul[OP51nk*@3I#d.6f\f1W'qbqbZmTov^*a^RSCr@FjuL01
     A10g5dq  C2019 09 12J/]:u?[`PWm4tM[NBW3?K2Ln^loOA?8$33wntNe+AS%H4.DEu$6jL01
     A10g5dq  C2019 09 12It7#X7;]JOZs#b8.]kh+%P)JK-i%C3NrJlu])7@.@T[wqs+TdM:iL01
     A10g5dq  C2019 09 12#Cm(Q6.NJ6FN)v1f3+N-:/*1(ielq%5NI]WTs?\wU)8%kYlw-S7=L01
     A10g5dq KC2019 09 12]yglwG[LJ)Xl:C1wIJo]Hlj!]a8_a?-MhhQaK/S'JP9GT=$I;D\R850
     A10g5dq KC2019 09 12,tkG9KT0Svx*]$:j+uxeO;CxoJm:,yFZjGN;!^nw6S5nmY1TxP)n850
     A10g5dq KC2019 09 12N'cxN#^M#r=JF3%*[#u4li[KClZvwcjKES#s1;!h39Z+rgu9UA)7850
     A10g5dq KC2019 09 12G]'Zjl_ibc1#dy7\lKBeic:)\f/)FmdI'T;gDoredacted;)aa%ZW34
     A10g5dq KC2019 09 12R;L#]kFF,)?BoN%ui?#w4Du*'\0haDtWqQ:x;'ZDQb#G^Ff;D_?^850
     A10g5dq KC2019 09 12@Vocq9]Ndii[g^]Hr\yZ_Fr,f3*AL#%mYN0+BmY`\A#`%LXa%me,W34
     A10g5dq KC2019 09 12lSjg%nmL'u\2=*lX@HyD/$JA?O4@UT-qif?69F2OY)3%aTM;R6?X850
     A10g5dq KC2019 09 129+FYa_ca0,NOCAv/p/l*4.8;IDRBd[+dnF?.cpTHmuxF-H*uVB6%W34
     A10g5dq KC2019 09 12fBf`]KKRrj`[pX+%x$Te#*`3Qmlso2ZR8_^0OxEyW+$7)Y83'oB(850
     A10g5dq KC2019 09 12DsukFDWZQo?5YHhYydZ6m9,+M4E0]i)2Z)W8d.a]wA,?.dhU1\aqH21
     A10g5dq KC2019 09 12cOq._.QBAfLxXj`?M]:Y#:AAXdPjFlacA2K[AWbB]:Mt!744:)V6H21
     A10g5dq KC2019 09 12;t@+t2F].3.C.dJ-^da1d[fUp!JS1`n_ZTYmTpUgXxOBxy)6ck'hH21
     A10g5dq KC2019 09 12]PC-).Gxm[R(`v](T5WQ4WZ$t%V,Im\lT@UUH6JO?0KV8ZlJ1[k^H21
     A10g5dq KC2019 09 12UKeeW4XmZ235g+8X/AwtlSfy67%q]'.)l?qK2Q7AY+Y7;h5Fu!Mu850
     A10g5dq KC2019 09 12lTc!rj/clickU]NLb;Xy;S2FfI;fk*fg`mR2p;gC`wxC%%_@7^5jW34
     A10g5dq KC2019 09 12K\VtQv@\b-B0ItvsicO`;L@@1`1Jv!u21I=-iSIPuYSI/Mmsiv3^H21
     A10g5dq KC2019 09 12ISX4ni8jj3V!7sbM2WE0U7M('I;?Lox;cgS-2AcgX6P8=It;4TJK595
     A10g5dq KC2019 09 12'R,*nL1cJLk%3#PkX@uK^7t2R.f#4G/@+#F@phFH3?H=d[^9,vP.595
     A10g5dq KC2019 09 12]iN:#OIwZ'DQGn?H0A5*jSH%7b13lku)Z#C7RG5fNY=OM7Q8Xgv@595
     A10g5dq KC2019 09 12D'1`lDS^s\PZV\'EH/X@8+WjwiWsFwrM.X@,1$YHv/\,kc+mLcgd595
     A10g5dq KC2019 09 12IxTFhethl;$J5d6mC8D,tPQ76y=yf'H?6oa!COr5jv9Za)M^uqko203
     A10g5dq KC2019 09 12v,lOIk+:[ucBP,KHu;EhO,L#DGN5=*f#v;'B1f\FayB7_herem`4204
     A10g5dq KC2019 09 12c_8E(oiPx%m\EJY`+ULqkrXj;J).d=qIs0nY]RWy:;#M/((s9=;c203
     A10g5dq KC2019 09 12F$'cuP\_x^?56vRi6Gmc#E+\,u[!8'%?D!I'`!?Y70VCyFjldnnc204
     A10g5dq KC2019 09 12y+(_=asyflCg$(=D;.TKQSrB6jHyiS[OZyj-RVyOxoTZgRuu`GMm204
     A10g5dq KC2019 09 12sIm/mb6oD?)w/jOfjXd_fDLs$@)LmR?y5e5_cUB`d3iP#GnhlC,@203
     A10g5dq HC2019 09 12Ee`NkTZ00YFOn+8#MRh`ur=wA4egWK-Vjn*[lfwlpEw.#$;k?6=6204
     A10g5dq KC2019 09 123^JxL[$Y7n'AP]9vJ6h@6?(9ww^4!S!:WT@9XSP[L0re,BVNFmy9204
     A10g5dq KC2019 09 12kvwadRnforfFLtf?,@I2UuCM;Opq$f=Ke0paX9LF:R@KLu_Up\)1K38
     A10g5dq KC2019 09 121S\i?So_ce!Jw[$(XV8(O9WhnMJQ95*uY$ON=lmr=kS5o5m%8+aAK38
     A10g5dq KC2019 09 12x/GF3x_)Z[accXVWPM]bKsU*e:F,mdo:d\8I^u^@6!]nW:D^p\FAK38
     A10g5dq KC2019 09 13/ULtJrZ=6)W!eI$IEC5'*Ou(4ld43sj9mn1'10B#OE[SDxPZpWdyK38
     A10g5dq KC2019 09 13SlgyexplanationWV2PFxn7YY9D!ps,LE^#%.4i-A5O@F+-Q+3OyK88
     A10g5dq KC2019 09 13$.Xr,3B3N,2fc7txZ(sJ1np!GGhPF9XrEE;K2C2E0u6*MqfGAw;kK88
     A10g5dq KC2019 09 13mp9:8in^(WNKLS8oe]%;sdhD*5?\*1O$D8m8QP?.XjZe\)+?cFmMK88

Station data:
(203) GiaGa Observatory  (N45.541408 E8.995500)  Italy. 0.13-m f/6.4
   refractor.
(204) Schiaparelli Observatory  (N45.867933 E8.770800)  Italy.  Observer L.
   Buzzi. 0.60-m f/4.64 Newtonian + CCD.
(595) Farra d'Isonzo  (N45.915734 E13.525780)  Italy.  Observers L.
   Bittesini, F. Fabris, E. Pettarin, F. Piani. Measurer E. Pettarin. 0.30-m
   f/4.5 reflector + CCD.
(850) Cordell-Lorenz Observatory, Sewanee  (N35.204094 W85.919800)
   US/Tennessee. 0.3-m Schmidt-Cassegrain.
(A44) Altschwendter Kleine Planeten  (N48.332991 E13.697200)  Austria.
(H21) Astronomical Research Observatory, Westfield  (N39.483057 W87.968270)
   US/Illinois. 0.76-m f/3.0 astrograph + CCD.
(J95) Great Shefford  (N51.474969 W1.447003)  UK.  Observer P. Birtwhistle.
   0.40-m f/6.0 Schmidt-Cassegrain + CCD.
(K38) M57 Observatory, Saltrio  (N45.873785 E8.918240)  Italy.
(K88) GINOP-KHK, Piszkéstető  (N47.917622 E19.893600)  Hungary.  Observer K.
   Sárneczky. 0.60-m Schmidt + CCD.
(L01) Višnjan Observatory, Tičan  (N45.290900 E13.749300)  Croatia.
   Observers K. Korlević, E. Pettarin. Measurer E. Pettarin. 1.0-m f/2.9
   reflector + CCD.
(L34) Galhassin Robotic Telescope, Isnello  (N37.939361 E14.020610)  Italy.
(T08) ATLAS-MLO, Mauna Loa  (N19.535772 W155.576400)  US/Hawaii.  Observers
   L. Denneau, A. Heinze, H. Weiland, J. Tonry, H. Flewelling, A.
   Fitzsimmons, D. Young, B. Stalder. Measurers L. Denneau, A. Heinze, J.
   Tonry. 0.5-m f/2.0 Schmidt + CCD.
(W34) Squirrel Valley Observatory, Columbus  (N35.225393 W82.154700)
   US/North Carolina.  Observer R. L. Flynn. 0.35-m f/1.9 Schmidt-Cassegrain
   + CCD.

Orbital elements:  A10g5dq
   Perihelion 2019 Aug 25.329231 +/- 0.000562 TT =  7:54:05 (JD 2458720.829231)
Epoch 2019 Sep 13.0 TT = JDT 2458739.5   Earth MOID: 0.0017   AutoNEOCP
M   7.55006616 +/- 0.0031           (J2000 ecliptic)
n   0.40437896 +/- 0.000165         Peri.  340.28046 +/- 0.0010
a   1.81110518 +/- 0.000493         Node   348.09247 +/- 0.00013
e   0.4525616 +/- 0.000152          Incl.    4.60887 +/- 0.0011
P   2.44/890.24d           H 25.2   G  0.15   U  6.9  
q 0.99146850 +/- 5.04e-6    Q 2.63074187 +/- 0.000992
From 62 observations 2019 Sept. 11-13 (33.6 hr); mean residual 0".34
Residuals in arcseconds: 
190911 T08  .07-  .11-    190912 L01  .24+  .02+    190912 H21  .08+  .14+    
190911 T08  .19+  .49-    190912 L01  .15+  .01+    190912 595  .24+  .16+    
190911 T08  .25+  .21-    190912 L01  .26+  .05-    190912 595  .44-  .26+    
190911 T08  .18-  1.2+    190912 L01  .07+  .02+    190912 595  .05-  .15-    
190911 L34  .48-  .92-    190912 L01  .00   .09-    190912 595  .28-  .83+    
190911 J95  .47+  .12-    190912 L01  .22+  .00     190912 203  .08+  .14-    
190911 J95  .38-  .23-    190912 850  .27-  .04+    190912 204  .26-  .14-    
190911 J95  .07-  .36+    190912 850  .10-  .23+    190912 203  .24+  .12-    
190911 J95  .30+  .13-    190912 850  .04+  .03-    190912 204  .01+  .10-    
190911 L34  1.6-  1.1+    190912 W34  .04-  .22-    190912 204  .02-  .19-    
190911 L34  .77-  .19-    190912 850  .01+  .05+    190912 203  .33+  .08-    
190912 L34  .86-  1.3+    190912 W34  .23+  .02+    190912 204  .29+  .49-    
190912 A44  .02+  .05+    190912 850  .06+  .13-    190912 204  .09-  .02-    
190912 A44  .21+  .19-    190912 W34  .08-  .03-    190912 K38  .01+  .01+    
190912 A44  .17-  .32-    190912 850  .12+  .14+    190912 K38  .11-  .25-    
190912 A44  .27+  .19-    190912 H21  .19+  .00     190912 K38  .03-  .04-    
190912 A44  .14+  .09+    190912 H21  .29+  .03+    190913 K38  .03-  .14-    
190912 A44  .09-  .18-    190912 H21  .03+  .03-    190913 K88  .12-  .08-    
190912 L01  .12+  .08-    190912 H21  .01+  .08+    190913 K88  .01+  .10+    
190912 L01  .11+  .27-    190912 850  .37-  .25+    190913 K88  .16+  .53+    
190912 L01  .19+  .03-    190912 W34  .25-  .19-    

Ephemerides (geocentric):
Date (UTC) HH   RA              Dec         delta   r     elong  mag " sig PA
---- -- -- --  -------------   -----------  ------ ------ -----  --- ---- ---
2019 09 13 02  02 55 56.159   +28 59 51.02  .01744 1.0149 119.1 18.6 .084 133
2019 09 13 03  02 55 29.744   +29 04 50.80  .01762 1.0150 119.2 18.6 .083 132
2019 09 13 04  02 55 03.805   +29 09 44.26  .01779 1.0151 119.2 18.6 .082 132
2019 09 13 05  02 54 38.332   +29 14 31.59  .01797 1.0152 119.3 18.6 .080 132
2019 09 13 06  02 54 13.309   +29 19 12.97  .01815 1.0154 119.4 18.6 .079 132
2019 09 13 07  02 53 48.726   +29 23 48.58  .01832 1.0155 119.5 18.7 .078 132
2019 09 13 08  02 53 24.572   +29 28 18.59  .01850 1.0156 119.6 18.7 .076 132
2019 09 13 09  02 53 00.834   +29 32 43.17  .01868 1.0157 119.7 18.7 .075 132
2019 09 13 10  02 52 37.501   +29 37 02.46  .01886 1.0158 119.8 18.7 .074 132
